Wind_Speed
15 15 14 14 14 13 13 12 12 11 11 11 11 11 11 11 11 11 11 11 11 11 10 10 10 9 9 9 9 9 9 9 9 10 10 10 10 10 10 10 11 11 11
15 16 16 16 15 15 14 14 14 13 13 13 12 12 12 12 12 12 12 12 12 12 12 12 12 12 11 11 11 11 11 11 11 12 12 12 12 12 12 12 12 13 13
16 17 17 17 17 16 16 16 15 15 14 14 14 14 14 14 14 14 13 13 13 14 13 13 13 13 13 13 13 13 13 13 13 13 13 13 13 14 13 13 14 14 14
18 19 19 19 18 18 17 17 17 17 16 16 16 16 16 15 15 15 15 15 15 15 15 15 15 15 15 15 15 15 15 15 15 15 15 15 15 15 15 15 15 16 16
20 20 20 20 20 19 19 19 19 19 18 18 18 18 18 18 17 17 17 17 17 16 16 17 17 17 17 17 17 17 17 17 17 17 17 17 17 17 17 17 17 18 18
21 21 21 21 21 21 20 20 20 20 20 20 20 19 19 19 19 19 19 19 19 18 18 19 19 19 19 19 19 18 18 18 18 18 18 18 19 19 19 19 20 20 20
22 22 22 22 22 22 22 22 22 21 21 21 21 21 21 21 21 21 21 21 21 21 20 20 20 20 20 20 20 20 20 20 20 20 20 20 20 20 21 21 21 21 21
24 23 23 23 23 23 23 23 23 23 23 22 22 22 22 22 22 22 22 22 22 22 22 22 22 22 22 21 22 22 22 22 22 22 22 22 22 22 22 23 23 23 23
25 25 24 24 24 24 24 24 24 24 24 24 23 24 24 24 24 24 24 23 23 23 23 23 23 23 24 23 24 24 24 23 23 24 24 23 23 23 24 24 24 25 25
27 27 26 26 25 25 25 25 25 24 24 24 24 24 24 24 24 24 24 24 24 24 24 24 24 24 25 25 25 25 25 25 25 25 25 26 26 26 26 27 27 27 27
28 28 28 27 27 27 26 26 26 25 25 25 25 25 25 24 25 25 25 25 26 26 26 26 26 27 27 27 27 27 27 27 28 28 28 29 29 29 30 30 30 30 30
29 29 29 29 28 28 28 27 27 27 27 27 26 26 26 26 26 26 27 27 27 28 28 29 29 29 29 29 29 29 30 30 31 31 32 32 32 32 33 33 33 33 34
29 29 29 29 29 29 29 29 29 29 29 29 29 29 29 29 29 29 29 29 30 30 30 30 31 31 31 31 32 32 33 33 34 34 35 35 35 35 35 36 36 36 36
30 29 30 30 30 29 29 30 30 30 30 30 30 31 31 31 31 31 31 32 32 32 32 32 32 32 33 33 34 35 36 36 36 37 37 37 37 38 38 38 39 39 39
30 30 30 30 30 30 30 30 30 30 31 31 31 32 32 32 32 33 33 33 33 33 33 33 33 34 34 35 35 36 37 38 38 39 39 39 39 40 40 41 41 41 41
31 31 31 30 30 30 30 30 30 31 31 32 32 33 33 33 33 33 33 34 34 34 34 35 35 35 36 36 37 37 38 39 39 40 40 41 41 41 42 42 42 42 42
31 31 31 31 31 30 30 30 30 31 31 31 32 33 33 33 34 34 34 35 35 35 36 36 37 37 37 38 38 39 39 40 40 41 41 42 42 42 43 43 43 43 44
32 32 32 31 31 31 31 31 31 31 31 32 32 32 33 34 34 35 35 36 36 37 37 38 38 39 39 39 40 40 40 41 41 41 42 42 43 44 44 44 45 45 46
32 32 32 32 32 32 32 32 32 33 33 33 33 33 33 34 35 36 37 37 38 38 39 39 39 40 40 40 40 41 42 42 42 43 43 44 45 45 46 46 47 47 47
34 34 33 34 34 34 34 34 34 34 34 34 34 35 35 36 37 37 38 39 39 40 40 41 41 41 41 42 42 42 43 43 43 44 45 46 47 47 47 48 48 48 48
36 35 35 35 35 35 35 35 35 35 35 36 36 37 37 38 38 39 40 40 41 41 42 42 43 43 43 44 44 44 44 45 45 46 46 47 48 49 49 49 50 50 50
36 36 36 36 37 37 37 37 36 36 37 37 38 38 39 39 40 41 41 42 42 43 43 44 44 44 45 45 46 46 46 46 46 47 48 49 49 50 50 50 50 51 52
37 37 37 37 38 38 38 38 38 38 38 38 38 39 40 41 41 42 42 43 44 44 44 44 45 45 46 47 47 48 49 49 49 49 49 50 50 51 51 51 52 52 53
38 38 39 39 39 39 39 39 39 39 39 39 40 40 41 41 42 42 43 44 44 45 45 45 45 46 48 48 49 49 50 51 52 52 51 51 51 51 52 52 52 53 53
40 39 40 40 40 39 40 40 40 40 40 41 41 41 42 42 43 43 44 44 45 45 46 47 47 48 49 49 49 50 51 52 52 53 52 51 51 51 52 52 53 53 52
40 40 40 40 40 40 40 41 41 41 42 42 43 43 43 44 44 45 45 45 46 46 47 48 48 49 49 50 51 52 52 52 53 53 53 52 51 51 51 52 52 53 53
Wind_Direction
238 239 241 242 242 241 241 241 240 241 243 246 245 245 240 240 242 245 247 249 251 252 253 253 257 259 261 265 269 271 270 272 275 279 281 281 281 281 282 283 283 285 286
240 241 242 243 244 243 242 241 242 243 245 247 248 246 244 246 247 250 252 254 254 255 257 258 260 262 263 266 269 272 272 273 275 278 279 280 281 281 281 282 282 284 284
240 242 243 244 245 244 243 243 243 246 247 248 249 248 249 250 251 252 254 255 256 257 259 260 261 263 265 267 268 271 274 274 275 277 278 278 279 281 282 283 284 285 284
241 242 243 244 244 245 244 244 245 247 248 249 249 250 250 252 253 254 255 257 258 259 260 261 263 265 267 268 268 270 273 274 275 276 276 276 277 279 280 281 282 283 283
242 242 243 244 244 245 246 246 248 249 250 251 251 251 252 253 254 255 256 258 258 259 261 262 263 266 267 268 269 270 271 272 274 276 277 277 277 278 279 280 281 282 283
242 243 244 244 244 245 247 247 249 249 250 252 252 253 253 254 256 257 258 259 259 259 261 263 265 266 267 269 269 270 270 271 273 275 276 277 278 279 280 281 281 281 282
242 243 244 244 245 246 247 248 248 250 251 252 253 255 255 255 256 257 258 259 260 261 262 263 265 266 267 269 270 270 270 270 271 273 274 276 278 279 279 280 281 281 282
243 244 244 245 246 247 247 248 249 250 251 252 253 255 256 257 257 258 259 259 260 261 262 263 264 266 267 269 269 269 270 271 271 272 274 276 278 279 280 280 280 281 281
244 244 245 246 247 247 248 248 249 250 251 252 253 253 255 257 258 258 259 260 261 262 262 263 264 266 267 268 268 269 270 270 272 273 275 276 277 279 280 281 281 280 281
245 246 246 247 247 248 248 249 249 250 251 252 252 253 254 256 257 259 259 260 262 263 264 265 266 267 268 269 270 269 269 270 271 273 274 275 277 277 279 280 280 280 280
245 246 247 247 248 249 250 250 250 251 252 252 253 254 255 256 258 259 260 261 263 264 265 266 267 268 269 270 270 270 270 271 272 273 274 275 276 277 277 277 278 279 280
245 246 247 247 249 249 250 251 251 252 252 253 254 255 256 258 259 260 261 263 264 266 267 267 268 269 269 270 271 271 271 272 273 274 275 275 275 276 276 276 277 278 279
245 247 247 248 248 249 250 251 251 252 253 254 255 256 257 259 260 262 263 265 266 267 268 269 269 270 270 270 271 271 272 273 273 274 275 275 276 276 276 277 278 278 279
244 246 247 248 248 249 250 251 252 253 254 255 256 257 258 260 261 263 264 265 267 268 269 270 270 270 271 271 272 272 272 273 274 275 275 276 276 276 276 276 277 278 279
244 246 247 248 249 250 251 253 253 254 255 256 258 259 260 261 262 264 265 266 267 268 269 270 271 271 272 272 273 273 273 274 274 275 276 276 276 276 277 277 277 278 279
243 245 246 248 249 251 252 253 254 255 257 258 259 260 261 262 263 264 265 266 268 269 270 270 271 272 272 273 273 274 275 275 276 277 277 277 277 277 277 278 278 278 278
242 244 245 247 248 250 251 253 255 257 258 260 261 261 262 263 264 265 266 267 268 269 270 271 271 272 273 273 273 274 275 276 277 278 278 278 277 277 277 278 278 278 278
242 243 245 246 248 250 252 254 255 257 259 261 262 262 263 264 265 266 267 268 268 270 271 271 272 273 273 273 274 274 275 277 278 279 279 279 279 279 278 278 278 279 279
242 243 245 247 249 250 252 255 257 258 260 261 263 264 265 266 266 267 268 268 269 270 271 272 273 273 274 274 275 275 276 278 279 279 280 281 281 280 279 279 279 279 279
244 244 245 247 250 252 253 255 257 259 261 263 264 266 267 267 267 268 268 269 270 270 271 272 273 274 275 275 276 276 277 278 279 280 280 281 281 281 280 279 278 278 278
245 246 246 248 250 252 254 256 258 260 262 263 265 266 267 268 268 269 269 270 271 271 272 273 274 274 276 276 277 277 278 279 279 280 281 282 282 282 280 279 278 278 277
245 246 248 249 251 253 256 258 260 261 262 264 265 266 267 268 269 270 270 271 272 272 273 273 274 275 276 277 278 278 278 278 279 280 281 283 283 282 281 280 279 278 277
245 247 248 250 252 255 257 259 260 261 263 264 266 267 268 269 269 270 270 271 272 273 273 274 275 276 277 278 279 280 280 279 280 280 281 282 282 281 280 280 279 279 278
246 247 249 251 253 255 257 259 261 262 263 264 265 267 268 269 270 270 271 272 273 273 273 274 275 277 278 279 280 281 282 283 283 282 282 283 283 282 281 281 280 280 280
247 248 250 253 254 256 258 260 262 263 264 265 266 267 268 269 270 271 272 273 273 274 274 275 277 277 279 281 281 282 283 284 284 284 283 283 283 282 282 282 281 281 280
247 249 251 253 255 257 258 260 262 263 264 265 266 268 269 270 271 272 273 273 274 274 275 277 278 279 280 281 282 283 284 284 285 285 284 284 283 282 282 283 283 281 280
Height
5862 5863 5864 5865 5866 5867 5868 5869 5870 5871 5872 5873 5874 5875 5876 5876 5877 5878 5878 5879 5879 5879 5879 5879 5879 5879 5879 5879 5879 5879 5879 5879 5878 5878 5877 5877 5876 5876 5875 5874 5874 5873 5872
5860 5861 5862 5863 5864 5865 5866 5867 5869 5870 5871 5872 5872 5873 5874 5875 5876 5876 5877 5877 5877 5878 5878 5878 5878 5878 5878 5878 5878 5877 5877 5877 5877 5876 5876 5875 5875 5874 5873 5873 5872 5871 5870
5857 5858 5859 5860 5862 5863 5864 5865 5866 5868 5869 5869 5870 5871 5872 5873 5874 5874 5875 5875 5876 5876 5876 5876 5876 5876 5876 5876 5876 5876 5875 5875 5875 5874 5874 5873 5873 5872 5871 5871 5870 5869 5868
5854 5855 5856 5858 5859 5860 5861 5863 5864 5865 5866 5867 5868 5869 5870 5871 5872 5872 5873 5873 5873 5874 5874 5874 5874 5874 5874 5874 5874 5874 5873 5873 5873 5872 5872 5871 5870 5870 5869 5868 5867 5867 5866
5851 5852 5853 5855 5856 5857 5859 5860 5861 5862 5863 5864 5865 5866 5867 5868 5869 5870 5870 5871 5871 5871 5871 5871 5871 5872 5871 5871 5871 5871 5871 5870 5870 5870 5869 5868 5868 5867 5866 5865 5865 5864 5863
5847 5848 5850 5851 5853 5854 5856 5857 5858 5859 5860 5861 5862 5863 5864 5865 5866 5867 5867 5868 5868 5868 5869 5869 5869 5869 5869 5868 5868 5868 5868 5868 5867 5867 5866 5865 5865 5864 5863 5862 5862 5861 5860
5843 5845 5846 5848 5849 5850 5852 5853 5855 5856 5857 5858 5859 5860 5861 5862 5862 5863 5864 5864 5865 5865 5865 5865 5865 5865 5865 5865 5865 5865 5865 5864 5864 5863 5863 5862 5861 5860 5860 5859 5858 5857 5856
5839 5841 5842 5844 5845 5847 5848 5849 5851 5852 5853 5854 5855 5856 5857 5858 5859 5859 5860 5860 5861 5861 5861 5861 5861 5862 5861 5861 5861 5861 5861 5860 5860 5859 5859 5858 5858 5857 5856 5855 5854 5853 5852
5834 5836 5838 5839 5841 5842 5844 5845 5847 5848 5849 5850 5851 5852 5853 5854 5855 5855 5856 5856 5856 5857 5857 5857 5857 5857 5857 5857 5857 5857 5856 5856 5856 5855 5855 5854 5853 5852 5852 5851 5850 5849 5848
5829 5831 5833 5835 5837 5838 5839 5841 5842 5843 5845 5846 5847 5848 5849 5849 5850 5851 5851 5852 5852 5852 5852 5853 5853 5853 5853 5853 5852 5852 5852 5852 5851 5851 5850 5849 5849 5848 5847 5846 5845 5844 5843
5824 5826 5828 5830 5832 5833 5835 5836 5837 5839 5840 5841 5842 5843 5844 5845 5845 5846 5846 5847 5847 5848 5848 5848 5848 5848 5848 5848 5847 5847 5847 5847 5846 5845 5845 5844 5843 5842 5841 5840 5839 5838 5837
5819 5820 5823 5825 5826 5828 5830 5831 5832 5834 5835 5836 5837 5838 5839 5840 5840 5841 5841 5842 5842 5843 5843 5843 5843 5843 5843 5842 5842 5842 5841 5841 5840 5840 5839 5838 5837 5836 5835 5834 5833 5831 5830
5813 5815 5817 5819 5821 5823 5824 5825 5827 5828 5829 5831 5832 5833 5834 5834 5835 5836 5836 5836 5837 5837 5837 5837 5837 5837 5837 5836 5836 5836 5835 5835 5834 5833 5832 5831 5830 5829 5828 5827 5826 5824 5823
5807 5809 5811 5813 5815 5817 5818 5820 5821 5822 5823 5825 5826 5827 5828 5828 5829 5829 5830 5830 5831 5831 5831 5831 5831 5831 5830 5830 5829 5829 5828 5827 5827 5826 5825 5824 5823 5822 5821 5819 5818 5817 5815
5801 5803 5805 5807 5809 5811 5812 5813 5815 5816 5817 5818 5819 5820 5821 5822 5823 5823 5823 5824 5824 5824 5824 5824 5824 5824 5823 5823 5822 5821 5820 5820 5819 5818 5817 5816 5815 5814 5812 5811 5809 5808 5807
5795 5796 5798 5800 5802 5804 5806 5807 5809 5810 5811 5812 5813 5813 5814 5815 5816 5816 5817 5817 5817 5817 5817 5817 5817 5816 5816 5815 5814 5813 5813 5811 5810 5809 5808 5807 5806 5805 5804 5802 5800 5799 5798
5788 5790 5792 5794 5796 5797 5799 5801 5802 5803 5804 5805 5806 5806 5807 5808 5808 5809 5809 5809 5810 5810 5809 5809 5809 5808 5808 5807 5806 5805 5804 5803 5802 5801 5799 5798 5797 5796 5794 5793 5791 5789 5788
5781 5783 5785 5787 5789 5790 5792 5793 5795 5796 5797 5798 5798 5799 5800 5800 5801 5801 5801 5802 5802 5802 5801 5801 5800 5800 5799 5799 5798 5797 5795 5794 5793 5791 5790 5789 5787 5786 5784 5782 5781 5779 5778
5773 5776 5778 5780 5781 5783 5785 5786 5787 5789 5790 5791 5791 5792 5792 5793 5793 5793 5793 5793 5793 5793 5793 5792 5792 5791 5790 5790 5789 5788 5786 5785 5784 5782 5780 5779 5777 5775 5773 5772 5770 5768 5766
5766 5768 5770 5772 5774 5776 5777 5779 5780 5781 5782 5783 5783 5784 5784 5785 5785 5785 5785 5784 5784 5784 5784 5783 5782 5782 5781 5780 5779 5778 5777 5775 5774 5772 5770 5768 5766 5764 5762 5760 5758 5756 5755
5758 5760 5763 5764 5766 5768 5769 5771 5772 5773 5774 5775 5775 5775 5776 5776 5776 5776 5776 5775 5775 5775 5774 5774 5773 5772 5771 5770 5769 5768 5767 5765 5763 5761 5759 5757 5754 5752 5750 5747 5746 5744 5742
5750 5752 5754 5756 5758 5759 5761 5762 5763 5764 5765 5766 5766 5767 5767 5767 5766 5766 5766 5766 5765 5765 5764 5763 5762 5762 5760 5759 5757 5756 5756 5756 5754 5751 5748 5745 5742 5739 5737 5735 5733 5731 5729
5741 5743 5745 5747 5749 5750 5752 5753 5754 5755 5756 5757 5757 5757 5757 5757 5756 5756 5756 5755 5755 5754 5753 5753 5752 5751 5750 5748 5745 5744 5742 5742 5741 5740 5736 5733 5730 5727 5725 5722 5720 5717 5715
5732 5734 5736 5738 5739 5741 5742 5743 5744 5746 5747 5747 5747 5747 5747 5746 5746 5746 5745 5744 5744 5743 5742 5742 5740 5740 5738 5736 5734 5731 5729 5727 5725 5725 5724 5720 5716 5713 5711 5708 5706 5703 5701
5722 5724 5726 5728 5730 5731 5733 5734 5735 5735 5736 5736 5737 5737 5736 5736 5735 5735 5734 5733 5733 5732 5731 5730 5729 5728 5726 5724 5722 5719 5717 5714 5711 5708 5708 5708 5704 5701 5698 5695 5692 5689 5687
5712 5714 5716 5718 5720 5721 5722 5723 5724 5725 5725 5726 5726 5726 5725 5725 5724 5724 5723 5722 5721 5720 5719 5718 5717 5716 5714 5711 5709 5706 5704 5701 5698 5695 5693 5693 5691 5689 5685 5682 5678 5676 5673